Location: Peterborough
(44.3091°N, 78.3197°W)
Time: 16:04:23
(UTC-04:00)

Explorer 7 - Pass Details

Date: 25 March 2023
Orbit: 477 x 653 km, 50.3° (Epoch: 04 June)

Event Time Altitude Azimuth Distance (km) Brightness Sun altitude
Rises 00:47:35 0° 291° (WNW) 2,658 - -43.4°
Reaches altitude 10° 00:50:08 10° 278° (W) 1,735 - -43.5°
Maximum altitude 00:53:19 24° 223° (SW) 1,063 - -43.6°
Drops below altitude 10° 00:56:23 10° 168° (SSE) 1,665 - -43.7°
Sets 00:58:47 0° 154° (SSE) 2,525 - -43.8°
